Hourly Data Report for September 22, 2019

TORONTO CITY
ONTARIO
Current Station Operator: ECCC - MSC

43°40'00.000" N
79°24'00.000" W
112.50 m
6158355
71508
XTO

Download Data

Hourly Data (September 2019)
Hourly Data Report for September 22, 2019
TIME
LST
Temp Definition
°C
Dew Point Definition
°C
Rel Hum Definition
%
Precip. Amount Definition
mm

Wind Dir Definition
10's deg

Wind Spd Definition
km/h
Visibility Definition
km
Stn Press Definition
kPa
Hmdx Definition


Wind Chill Definition


Weather Definition


00:00 20.6 17.8 84 0.0       100.51 26   LegendNANA
01:00 20.5 18.2 87 0.0       100.50 27   LegendNANA
02:00 20.2 18.0 87 0.0       100.45 26   LegendNANA
03:00 20.6 17.7 83 0.0       100.37 26   LegendNANA
04:00 21.0 17.6 81 0.0       100.39 27   LegendNANA
05:00 20.7 17.5 82 0.0       100.41 26   LegendNANA
06:00 21.3 18.1 82 0.0       100.41 27   LegendNANA
07:00 21.6 18.2 81 0.0       100.41 28   LegendNANA
08:00 22.3 18.3 78 0.0       100.38 29   LegendNANA
09:00 23.0 18.8 77 0.0       100.32 30   LegendNANA
10:00 24.7 19.1 71 0.0       100.27 32   LegendNANA
11:00 25.1 18.7 68 0.0       100.20 32   LegendNANA
12:00 27.1 17.7 56 0.0       100.12 33   LegendNANA
13:00 28.0 16.1 48 0.0       100.01 33   LegendNANA
14:00 29.8 13.7 37 0.0       99.93 33   LegendNANA
15:00 28.7 13.3 39 0.0       99.86 32   LegendNANA
16:00 28.3 13.8 41 0.0       99.84 32   LegendNANA
17:00 27.6 12.8 40 0.0       99.82 30   LegendNANA
18:00 27.7 11.7 37 0.0       99.81 30   LegendNANA
19:00 25.6 13.7 48 0.0       99.79 29   LegendNANA
20:00 24.3 14.4 54 0.0       99.77 28   LegendNANA
21:00 24.1 14.7 56 0.0       99.74 28   LegendNANA
22:00 23.3 15.3 60 0.0       99.67 27   LegendNANA
23:00 23.3 15.4 61 0.0       99.61 28   LegendNANA

Notes on Data Quality.

Legend

  • E = Estimated
  • M = Missing
  • NA = Not Available*
  • [empty] = Indicates an unobserved value
Date modified: